Probability
0 0 0 0 0 0 0 0 0 0 0 0 0 0 0 0 0 0 0 0 0 0 0 0 0 0 0 0 0 0 0 0 0 0 0 0 0 0 0 0 0 0 0 0
0 0 0 0 0 0 0 0 0 0 0 0 0 0 0 0 0 0 0 0 0 0 0 0 0 0 0 0 0 0 0 0 0 0 0 0 0 0 0 0 0 0 0 0
0 0 0 0 0 0 0 0 0 0 0 0 0 0 0 0 0 0 0 0 0 0 0 0 0 0 0 0 0 0 0 0 0 0 0 0 0 0 0 0 0 0 0 0
0 0 0 0 0 0 0 0 0 0 0 0 0 0 0 0 0 0 0 0 0 0 0 0 0 0 0 0 0 0 0 0 0 0 0 0 0 0 0 0 0 0 0 0
0 0 0 0 0 0 0 0 0 0 0 0 0 0 0 0 0 0 0 0 0 0 0 0 0 0 0 0 0 0 0 0 0 0 0 0 0 0 0 0 0 0 0 0
0 0 0 0 0 0 0 0 0 0 0 0 0 0 0 0 0 0 0 0 0 0 0 0 0 0 0 0 0 0 0 0 0 0 0 0 0 0 0 0 0 0 0 0
0 0 0 0 0 0 0 0 0 0 0 0 0 0 0 0 0 0 0 0 0 0 0 0 0 0 0 0 0 0 0 0 0 0 0 0 0 0 0 0 0 0 0 0
0 0 0 0 0 0 0 0 0 0 0 0 0 0 0 0 0 0 0 0 0 0 0 0 0 0 0 0 0 0 0 0 0 0 0 0 0 0 0 0 0 0 0 0
0 0 0 0 0 0 0 0 0 0 0 0 0 0 0 0 0 0 0 0 0 0 0 0 0 0 0 0 0 0 0 0 0 0 0 0 0 0 0 0 0 0 0 0
0 0 0 0 0 0 0 0 0 0 0 0 0 0 0 0 0 0 0 0 0 0 0 0 0 0 0 0 0 0 0 0 0 0 0 0 0 0 0 0 0 0 0 0
0 0 0 0 0 0 0 0 0 0 0 0 0 0 0 0 0 0 0 0 0 0 0 0 0 0 0 0 0 0 0 0 0 0 0 0 0 0 0 0 0 0 0 0
0 0 0 0 0 0 0 0 0 0 0 0 0 0 0 0 0 0 0 0 0 0 0 0 0 0 0 0 0 0 0 0 0 0 0 0 0 0 0 0 0 0 0 0
0 0 0 0 0 0 0 0 0 0 0 0 0 0 0 0 0 0 0 0 0 0 0 0 0 0 0 0 0 0 0 0 0 0 0 0 0 0 0 0 0 0 0 0
0 0 0 0 0 0 0 0 0 0 0 0 0 0 0 0 0 0 0 0 0 0 0 0 0 0 0 0 0 0 0 0 0 0 0 0 0 0 0 0 0 0 0 0
0 0 0 0 0 0 0 0 0 0 0 0 0 0 0 0 0 0 0 0 0 0 0 0 0 0 0 0 0 0 0 0 0 0 0 0 0 0 0 0 0 0 0 0
0 0 0 0 0 0 0 0 0 0 0 0 0 0 0 0 0 0 0 0 0 0 0 0 0 0 0 0 0 0 0 0 0 0 0 0 0 0 0 0 0 0 0 0
0 0 0 0 0 0 0 0 0 0 0 0 0 0 0 0 0 0 0 0 0 0 0 0 0 0 0 0 0 0 0 0 0 0 0 0 0 0 0 0 0 0 0 0
0 0 0 0 0 0 0 0 0 0 0 0 0 0 0 0 0 0 0 0 0 0 0 0 0 0 0 0 0 0 0 0 0 0 0 0 0 0 0 0 0 0 0 0
0 0 0 0 0 0 0 0 0 0 0 0 0 0 0 0 0 0 0 0 0 0 0 0 0 0 0 0 0 0 0 0 0 0 0 0 0 0 0 0 0 0 0 0
0 0 0 0 0 0 0 0 0 0 0 0 0 0 0 0 0 0 0 0 0 0 0 0 0 0 0 0 0 0 0 0 0 0 0 0 0 0 0 0 0 0 0 0
0 0 0 0 0 0 0 0 0 0 0 0 0 0 0 0 0 0 0 0 0 0 0 0 0 0 0 0 0 0 0 0 0 0 0 0 0 0 0 0 0 0 0 0
0 0 0 0 0 0 0 0 0 0 0 0 0 0 0 0 0 0 0 0 0 0 0 0 0 0 0 0 0 0 0 0 0 0 0 0 0 0 0 0 0 0 0 0
0 0 0 0 0 0 0 0 0 0 0 0 0 0 0 0 0 0 0 0 0 0 0 0 0 0 0 0 0 0 0 0 0 0 0 0 0 0 0 0 0 0 0 0
0 0 0 0 0 0 0 0 0 0 0 0 0 0 0 0 0 0 0 0 0 0 0 0 0 0 0 0 0 0 0 0 0 0 0 0 0 0 0 0 0 0 0 0
0 0 0 0 0 0 0 0 0 0 0 0 0 0 0 0 0 0 0 0 0 0 0 0 0 0 0 0 0 0 0 0 0 0 0 0 0 0 0 0 0 0 0 0
0 0 0 0 0 0 0 0 0 0 0 0 0 0 0 0 0 0 0 0 0 0 0 0 0 0 0 0 0 0 0 0 0 0 0 0 0 0 0 0 0 0 0 0
0 0 0 0 0 0 0 0 0 0 0 0 0 0 0 0 0 0 0 0 0 0 0 0 0 0 0 0 0 0 0 0 0 0 0 0 0 0 0 0 0 0 0 0
Height
5609 5616 5624 5630 5637 5642 5648 5655 5661 5668 5673 5678 5682 5685 5687 5689 5691 5693 5695 5697 5698 5698 5699 5699 5700 5700 5699 5699 5699 5698 5697 5696 5694 5693 5691 5690 5687 5685 5683 5680 5677 5674 5671 5667
5598 5605 5612 5618 5626 5632 5639 5646 5652 5658 5664 5670 5672 5675 5678 5681 5683 5686 5687 5689 5690 5691 5691 5692 5692 5692 5692 5691 5691 5690 5689 5688 5686 5685 5683 5681 5679 5677 5674 5671 5668 5665 5661 5658
5589 5595 5600 5607 5618 5625 5631 5638 5644 5649 5659 5661 5663 5666 5669 5672 5675 5678 5679 5681 5682 5683 5683 5684 5684 5684 5684 5683 5683 5682 5681 5680 5678 5677 5675 5673 5670 5668 5665 5662 5659 5656 5652 5648
5580 5586 5591 5606 5613 5618 5624 5630 5636 5642 5648 5651 5655 5657 5660 5664 5667 5669 5671 5672 5674 5675 5675 5676 5676 5676 5676 5675 5675 5674 5673 5671 5670 5668 5666 5664 5662 5659 5656 5653 5650 5646 5642 5638
5571 5577 5585 5596 5604 5610 5615 5621 5629 5633 5638 5642 5645 5647 5651 5656 5658 5660 5662 5664 5665 5667 5667 5668 5668 5668 5668 5667 5666 5665 5664 5663 5662 5660 5658 5655 5653 5650 5647 5644 5640 5636 5632 5627
5562 5569 5577 5591 5598 5602 5607 5612 5621 5624 5629 5633 5635 5639 5646 5648 5649 5652 5654 5656 5657 5658 5659 5660 5660 5660 5659 5659 5658 5657 5656 5655 5653 5651 5649 5647 5644 5641 5638 5634 5630 5626 5622 5617
5554 5561 5572 5583 5588 5593 5601 5611 5614 5617 5621 5624 5628 5634 5638 5639 5641 5644 5646 5648 5649 5650 5651 5651 5651 5651 5651 5651 5650 5649 5648 5646 5645 5643 5640 5638 5635 5632 5628 5625 5621 5617 5612 5607
5546 5555 5568 5575 5581 5588 5596 5601 5604 5608 5612 5616 5621 5625 5627 5630 5633 5636 5638 5640 5641 5642 5643 5643 5643 5643 5643 5642 5642 5641 5639 5638 5636 5634 5632 5629 5626 5623 5619 5615 5611 5606 5601 5595
5542 5554 5562 5568 5575 5581 5586 5591 5595 5599 5604 5608 5613 5616 5620 5623 5625 5628 5630 5632 5633 5634 5634 5635 5635 5635 5635 5634 5633 5632 5631 5629 5627 5625 5623 5620 5617 5613 5609 5605 5601 5596 5591 5585
5534 5545 5554 5560 5566 5572 5578 5583 5587 5592 5597 5601 5605 5609 5612 5615 5618 5620 5622 5624 5625 5626 5626 5627 5627 5627 5627 5626 5625 5624 5622 5621 5618 5616 5613 5610 5607 5604 5600 5595 5591 5585 5580 5574
5526 5537 5545 5552 5559 5565 5571 5575 5580 5585 5589 5593 5597 5601 5605 5608 5610 5612 5614 5616 5617 5618 5618 5619 5619 5619 5618 5618 5617 5615 5614 5612 5610 5607 5604 5601 5598 5594 5590 5585 5580 5574 5568 5562
5521 5531 5538 5546 5552 5557 5562 5568 5573 5577 5581 5586 5590 5594 5597 5600 5602 5605 5606 5608 5609 5610 5610 5611 5611 5610 5610 5609 5608 5607 5605 5603 5601 5598 5595 5592 5588 5584 5579 5574 5569 5562 5556 5549
5513 5521 5528 5537 5543 5549 5554 5560 5565 5570 5575 5579 5582 5586 5589 5592 5594 5597 5598 5600 5601 5602 5602 5603 5602 5602 5601 5601 5599 5598 5596 5594 5591 5589 5586 5582 5578 5574 5569 5563 5557 5551 5543 5536
5506 5513 5521 5530 5536 5542 5548 5554 5558 5563 5568 5571 5575 5578 5581 5584 5587 5589 5590 5591 5593 5594 5594 5594 5594 5594 5593 5592 5590 5589 5587 5585 5582 5579 5576 5572 5568 5563 5558 5552 5546 5539 5531 5523
5499 5507 5515 5522 5529 5535 5542 5547 5552 5556 5561 5564 5568 5571 5574 5576 5579 5580 5582 5583 5584 5585 5585 5586 5585 5585 5584 5583 5581 5580 5578 5575 5573 5569 5566 5562 5557 5552 5547 5541 5535 5527 5519 5510
5492 5499 5507 5515 5522 5528 5534 5540 5545 5549 5554 5557 5560 5563 5566 5568 5570 5572 5574 5575 5576 5577 5577 5577 5577 5576 5575 5574 5572 5570 5568 5566 5563 5559 5556 5551 5547 5541 5536 5529 5523 5515 5506 5497
5485 5492 5501 5509 5515 5521 5528 5533 5538 5542 5546 5549 5553 5555 5558 5560 5562 5564 5566 5567 5568 5568 5568 5568 5568 5567 5566 5565 5563 5561 5559 5556 5553 5549 5545 5541 5536 5530 5524 5518 5510 5502 5494 5484
5479 5487 5494 5502 5508 5514 5520 5525 5530 5534 5538 5541 5545 5548 5550 5552 5554 5556 5557 5558 5559 5560 5560 5559 5559 5558 5557 5555 5554 5551 5549 5546 5543 5539 5535 5530 5525 5519 5513 5506 5498 5490 5480 5471
5473 5481 5488 5495 5501 5507 5513 5518 5522 5526 5530 5533 5537 5540 5542 5544 5546 5547 5548 5550 5550 5551 5551 5550 5550 5549 5548 5546 5544 5542 5539 5536 5533 5529 5524 5519 5514 5508 5501 5494 5486 5477 5468 5458
5468 5475 5482 5489 5495 5501 5506 5510 5514 5518 5522 5525 5528 5531 5534 5536 5537 5539 5540 5541 5541 5542 5542 5541 5541 5540 5538 5536 5534 5532 5529 5526 5522 5518 5513 5508 5502 5496 5489 5481 5473 5464 5455 5446
5463 5470 5477 5483 5489 5494 5499 5503 5507 5511 5514 5517 5520 5523 5525 5527 5528 5530 5531 5532 5532 5532 5532 5532 5531 5530 5528 5527 5524 5522 5519 5515 5511 5507 5502 5497 5491 5484 5477 5469 5461 5452 5443 5434
5458 5464 5470 5476 5481 5486 5491 5495 5499 5503 5506 5509 5512 5514 5517 5518 5520 5521 5522 5523 5523 5523 5523 5522 5522 5520 5519 5517 5514 5511 5508 5505 5500 5496 5491 5485 5479 5472 5465 5457 5448 5439 5431 5422
5452 5458 5463 5469 5474 5479 5483 5487 5491 5494 5498 5501 5503 5506 5508 5509 5511 5512 5513 5514 5514 5514 5513 5513 5512 5510 5509 5506 5504 5501 5497 5494 5489 5484 5479 5473 5467 5460 5452 5444 5436 5427 5418 5409
5445 5451 5457 5462 5466 5471 5475 5479 5483 5486 5489 5492 5495 5497 5499 5501 5502 5503 5504 5504 5504 5504 5504 5503 5502 5500 5498 5496 5493 5490 5486 5482 5478 5473 5467 5461 5455 5447 5440 5431 5423 5414 5406 5397
5439 5444 5449 5454 5459 5463 5467 5471 5474 5478 5481 5483 5486 5488 5490 5491 5493 5494 5494 5494 5495 5494 5494 5493 5492 5490 5488 5485 5482 5479 5475 5471 5466 5461 5455 5449 5442 5435 5427 5419 5410 5402 5393 5385
5433 5438 5443 5447 5451 5455 5459 5463 5466 5469 5472 5474 5477 5479 5480 5482 5483 5484 5484 5485 5485 5484 5484 5483 5481 5479 5477 5474 5471 5468 5464 5459 5455 5449 5443 5436 5429 5422 5414 5405 5397 5389 5381 5373
5426 5431 5435 5439 5444 5447 5451 5454 5458 5461 5463 5466 5468 5469 5471 5473 5474 5474 5475 5475 5475 5474 5473 5472 5470 5468 5466 5463 5460 5456 5452 5447 5442 5437 5430 5423 5416 5408 5400 5392 5384 5376 5369 5362
Wind_Speed
48 47 45 45 44 44 44 42 40 35 33 31 30 29 29 29 27 26 26 25 26 25 25 26 27 27 27 28 28 28 29 29 30 30 31 31 31 32 33 34 35 36 38 39
48 48 48 47 46 45 44 42 41 38 34 31 31 31 31 29 27 26 25 25 25 25 26 26 26 27 27 27 28 28 29 29 30 30 30 31 31 32 33 35 36 37 39 40
48 48 49 51 47 45 43 41 40 38 31 30 32 32 30 29 27 26 26 26 26 26 26 26 26 27 27 28 28 28 29 29 29 30 30 31 32 33 34 36 37 38 39 40
48 48 50 45 43 44 42 41 39 36 33 32 32 31 31 29 28 27 26 26 26 26 26 26 26 27 27 28 28 28 29 29 29 29 30 31 33 34 35 36 37 39 40 41
48 48 47 44 42 40 40 39 37 35 33 32 32 33 31 28 28 27 27 26 26 26 26 26 27 27 28 28 28 28 28 29 29 30 31 32 33 34 36 37 38 39 40 42
46 45 44 40 38 37 38 38 34 34 32 32 33 32 26 27 28 27 27 27 27 27 27 27 28 28 28 28 28 28 29 29 30 31 32 33 34 35 36 37 38 39 40 42
47 45 42 39 37 36 36 28 28 30 30 31 32 27 25 27 27 27 27 27 27 28 28 28 28 28 28 28 28 29 29 30 30 31 32 33 34 35 36 37 38 40 41 43
48 47 43 39 37 35 29 27 28 28 29 30 29 28 28 27 27 26 26 27 27 28 28 28 28 28 28 28 28 29 29 30 31 31 32 33 35 35 36 38 39 41 42 44
46 44 39 36 35 32 31 30 29 29 28 28 28 27 27 27 27 26 26 26 27 27 27 27 28 28 28 28 28 29 29 30 31 32 33 34 35 36 37 39 40 42 44 46
43 42 38 33 33 33 32 30 29 29 28 27 27 26 26 26 26 26 26 26 26 27 27 27 27 28 28 28 28 29 30 31 31 33 34 35 36 37 38 40 42 43 46 48
43 39 37 35 32 31 30 29 29 28 28 27 26 26 26 26 26 26 26 26 26 27 27 27 28 28 28 29 29 30 31 32 32 33 34 35 37 38 40 41 43 45 47 50
40 37 36 33 32 31 30 28 27 27 27 26 26 26 27 27 26 26 26 26 26 27 27 27 27 28 28 29 30 31 31 32 33 34 35 36 38 40 41 43 44 47 49 52
39 39 38 36 35 33 31 30 28 27 26 25 25 26 26 26 26 26 26 26 27 27 27 27 28 28 29 29 30 31 32 32 34 35 36 38 39 40 42 44 46 49 51 53
40 39 38 36 35 33 32 30 28 27 26 26 26 26 26 26 26 26 26 26 27 27 27 28 28 29 29 30 30 31 32 33 34 36 37 38 40 41 43 45 47 50 53 55
39 38 37 37 36 34 33 31 29 28 27 26 26 26 26 26 27 27 26 26 27 27 27 28 28 29 30 30 31 32 33 34 35 37 38 39 40 42 44 47 49 52 54 57
40 39 38 37 34 33 32 31 29 28 27 27 26 26 26 26 27 27 27 26 27 27 27 28 29 30 30 31 32 33 34 35 36 37 38 40 42 44 46 48 51 53 56 58
40 39 38 36 33 32 32 31 29 28 28 28 27 26 26 26 26 26 27 27 27 28 28 29 29 30 30 31 32 33 34 35 36 38 39 41 43 45 48 50 52 55 58 59
38 38 37 35 34 32 32 31 30 29 28 28 27 27 26 26 26 27 28 28 28 28 29 29 30 30 31 32 33 34 35 36 37 39 40 42 44 47 49 51 54 57 58 59
36 37 36 34 33 32 31 30 30 30 29 28 27 27 27 27 28 28 28 29 29 29 29 30 30 31 31 32 34 35 36 37 38 40 42 44 46 48 51 53 56 58 58 59
36 36 35 34 32 31 30 30 30 29 28 27 27 27 27 28 28 28 29 29 29 29 30 30 31 31 32 34 35 35 36 38 39 41 43 45 47 49 52 54 57 58 58 59
35 34 34 33 32 30 30 30 29 28 28 27 28 28 28 28 28 29 29 29 29 30 30 31 32 32 33 34 35 36 37 39 40 42 44 47 48 51 53 55 57 58 58 58
34 34 33 33 32 31 31 30 29 29 29 28 28 28 28 28 28 29 29 30 30 30 31 31 32 33 34 35 36 37 38 40 42 44 46 47 49 52 54 56 57 57 58 58
33 32 32 32 32 32 32 31 30 30 30 30 29 29 29 29 28 29 29 29 30 30 31 32 32 33 34 35 37 38 39 41 43 45 46 48 50 53 55 56 57 58 58 58
32 32 31 31 31 31 31 30 30 30 30 30 30 30 29 29 28 29 29 30 31 31 31 32 33 34 35 36 37 39 40 42 44 45 47 49 52 54 56 57 57 57 57 57
33 32 31 31 32 32 31 30 30 29 29 30 30 30 30 29 29 30 30 31 31 31 32 32 33 35 36 37 38 40 41 43 44 46 48 50 53 55 56 57 58 57 56 55
32 32 31 31 31 31 30 30 29 30 30 30 30 30 30 30 30 31 31 31 31 32 32 33 34 35 36 38 39 40 42 44 45 47 49 52 54 56 57 58 57 55 54 52
31 31 31 31 30 30 30 30 30 29 29 29 30 30 30 30 31 31 31 31 31 32 33 34 35 36 37 38 40 41 43 45 47 49 51 53 55 56 57 57 55 53 51 49
Wind_Direction
222 223 225 227 228 229 232 234 237 238 240 242 245 247 249 251 252 254 255 257 258 259 261 262 264 266 268 270 272 274 276 277 279 280 282 283 284 285 287 288 288 289 291 292
219 221 224 224 224 227 229 231 233 235 236 238 243 244 246 248 250 252 254 256 257 259 260 262 264 267 269 271 273 275 276 277 279 280 282 284 285 287 288 289 290 291 293 294
218 220 224 225 224 227 229 230 233 235 234 237 240 244 247 249 250 251 252 254 256 258 260 262 264 267 269 271 273 275 276 278 280 282 284 285 286 287 288 290 291 292 294 295
219 220 225 223 225 227 229 231 233 234 232 235 239 242 244 247 249 250 252 254 255 258 260 263 265 267 270 272 273 274 277 279 281 283 284 285 287 289 290 291 293 294 295 297
217 221 224 223 222 225 229 229 230 233 232 233 236 239 241 245 249 251 253 254 256 258 261 264 266 268 270 272 273 276 278 280 282 283 285 286 288 290 291 293 294 295 297 298
216 219 220 220 223 226 229 229 227 232 231 232 236 240 242 245 247 249 251 253 256 258 261 264 267 268 270 271 273 276 278 280 282 284 286 288 290 292 293 294 296 297 299 300
218 220 219 218 222 226 228 224 227 231 231 233 237 239 239 241 245 248 251 253 255 258 261 265 267 268 269 271 274 276 279 281 283 285 287 289 291 293 295 296 298 299 301 302
219 220 220 221 223 225 226 225 227 229 231 233 235 235 238 242 245 247 250 253 256 259 262 265 267 268 269 272 274 277 279 282 284 286 289 291 293 295 296 298 299 301 303 304
221 221 222 222 220 221 224 225 225 227 229 231 233 235 239 243 245 247 250 253 255 258 262 264 266 267 270 272 275 278 281 283 285 288 290 292 294 296 298 300 301 303 304 306
218 217 219 219 219 221 224 223 224 226 227 230 232 235 239 242 244 247 250 253 256 259 262 264 266 268 270 273 276 279 282 285 287 290 292 294 296 298 300 302 303 305 306 307
215 214 215 216 218 220 219 218 219 222 225 229 232 236 239 242 244 248 251 254 257 259 261 263 266 269 271 274 277 281 284 286 289 291 293 296 298 300 302 303 305 306 308 309
212 211 211 211 216 216 216 217 219 222 224 229 232 236 238 241 246 249 252 255 257 259 261 264 268 271 273 276 279 282 285 288 290 293 295 297 299 301 303 305 307 308 310 311
210 210 211 211 214 216 216 217 220 222 225 229 233 236 238 241 245 249 252 255 258 259 262 266 269 272 275 278 281 284 286 289 291 294 296 299 301 303 305 307 309 310 312 313
211 211 212 213 215 217 219 220 221 224 227 230 233 236 238 241 245 249 253 256 258 261 264 267 270 274 277 280 282 285 287 290 292 296 299 301 303 305 307 309 311 312 314 314
212 211 210 212 214 217 218 220 224 226 229 232 234 236 239 242 246 250 254 257 259 262 265 269 273 276 279 281 283 286 288 291 294 297 300 302 304 307 309 310 312 314 315 315
211 211 210 211 213 215 219 222 226 228 231 234 235 238 241 245 249 252 255 258 260 263 267 270 274 277 279 282 285 287 290 293 296 299 301 304 306 308 310 312 314 315 316 317
207 208 209 210 213 215 218 222 226 229 232 235 237 240 245 249 252 254 256 259 262 265 269 272 275 278 280 283 286 289 291 294 297 300 303 305 308 310 312 314 315 316 317 317
206 207 208 209 212 215 218 222 226 230 233 234 237 243 247 251 253 255 258 261 264 267 270 273 276 279 282 285 288 290 293 296 299 302 304 307 309 311 313 314 316 317 318 318
208 208 209 211 213 216 219 224 229 233 234 236 240 245 249 253 255 257 259 261 265 268 271 274 277 280 283 286 289 292 294 297 300 303 305 308 310 312 314 315 317 318 319 319
209 209 210 213 216 219 222 227 231 233 235 238 242 247 251 254 256 258 260 263 265 268 271 274 277 281 284 287 290 293 296 298 301 304 306 309 311 313 315 316 318 319 319 320
210 212 213 215 217 221 225 229 231 234 237 241 245 249 252 254 257 259 261 263 266 268 271 275 278 282 285 288 291 294 297 300 302 305 307 310 312 314 315 317 319 319 319 320
213 214 216 218 221 225 229 231 234 237 240 243 247 249 252 255 257 259 260 264 267 270 273 277 280 283 286 289 292 295 298 301 304 306 308 311 312 314 316 318 319 319 319 320
213 215 218 220 223 227 229 232 235 239 241 244 246 250 253 255 257 259 262 265 269 272 275 278 281 284 286 290 293 296 299 302 304 307 309 311 313 315 317 318 319 319 319 320
214 216 219 222 224 226 229 231 234 237 240 243 247 250 253 255 257 260 263 266 269 272 275 278 281 284 287 291 294 297 300 303 305 308 310 312 314 316 317 319 319 319 319 319
215 216 220 223 225 227 228 230 233 237 240 243 247 250 252 255 258 261 264 266 268 271 275 279 282 285 288 292 295 298 301 303 306 308 310 313 315 317 318 318 319 318 318 319
217 219 221 223 225 226 228 231 235 240 243 245 248 250 253 256 259 262 264 267 270 274 277 280 284 287 290 293 296 299 301 304 307 309 311 314 316 317 318 318 318 318 318 318
220 222 224 225 227 229 232 235 238 241 243 246 248 251 254 257 259 262 265 269 272 275 278 282 285 289 292 294 297 299 302 305 307 310 312 314 316 317 318 318 318 317 317 317